Flag for Chile Weather past 2 weeks in Temuco, Chile

Now
61 °F

Sunny.


Feels Like: 61 °F
Forecast: 44 / 73 °F
Wind: 9 mph from Southwest

Location: Concepcion Airport

Current Time: Jan 27, 2015 at 9:54:36 AM

Latest Report: Jan 27, 2015 at 9:00 AM


Visibility: 10 mi

Pressure: 30.01 "Hg

Humidity: 72%

Dew point: 52 °F

Location of TemucoLocation

Historic Weather in Temuco — Graph

°F

Temuco temperature yesterday

Maximum temperature yesterday: 73 °F (at 2:00 PM)
Minimum temperature yesterday: 55 °F (at 6:00 AM)
Average temperature yesterday: 65 °F

Past Weeks' High & Low Weather Summary

 TemperatureHumidityPressure
High79 °F (Jan 16, 4:00 PM)100% (Jan 18, 12:00 AM)30.09 "Hg (Jan 18, 12:00 AM)
Low52 °F (Jan 13, 7:00 AM)44% (Jan 12, 1:00 PM)29.89 "Hg (Jan 12, 4:00 PM)
Average63 °F78%29.98 "Hg
* Reported Jan 12 8:00 AM — Jan 27 8:00 AM, Temuco, Weather by CustomWeather, © 2014

Note: Actual official high and low records may vary slightly from our data, if they occured in-between our weather recording intervals... More about our weather records

Advertising

Temuco weather history for previous 24 hours

 ConditionsComfort  
Time TempWeatherWind HumidityBarometerVisibility
8:00 AM
Jan 27
55 °FSunny.3 mph88%30.01 "Hg10 mi
7:00 AM52 °FClear.6 mph94%29.98 "Hg10 mi
6:00 AM54 °FClear.2 mph94%29.98 "Hg10 mi
5:00 AM55 °FClear.2 mph88%29.95 "Hg10 mi
4:00 AM57 °FClear.3 mph88%29.95 "Hg10 mi
3:00 AM59 °FClear.6 mph82%29.95 "Hg10 mi
2:00 AM61 °FClear.6 mph83%29.95 "Hg10 mi
1:00 AM61 °FClear.9 mph83%29.95 "Hg10 mi
12:00 AM63 °FClear.13 mph77%29.92 "Hg10 mi
11:00 PM
Jan 26
63 °FClear.12 mph83%29.92 "Hg10 mi
10:00 PM66 °FClear.14 mph78%29.89 "Hg10 mi
9:00 PM68 °FSunny.16 mph73%29.89 "Hg10 mi
7:00 PM72 °FSunny.16 mph69%29.89 "Hg10 mi
6:00 PM73 °FSunny.16 mph65%29.92 "Hg10 mi
5:00 PM72 °FPassing clouds.17 mph69%29.92 "HgN/A
4:00 PM72 °FPassing clouds.18 mph69%29.92 "HgN/A
3:00 PM73 °FSunny.18 mph69%29.92 "Hg10 mi
2:00 PM73 °FSunny.15 mph65%29.92 "Hg10 mi
1:00 PM72 °FSunny.16 mph57%29.92 "Hg10 mi
12:00 PM72 °FSunny.12 mph57%29.92 "Hg10 mi
11:00 AM70 °FSunny.13 mph60%29.95 "Hg10 mi
10:00 AM66 °FPassing clouds.7 mph73%29.95 "HgN/A
9:00 AM63 °FSunny.2 mph83%29.92 "Hg10 mi
Weather by CustomWeather, © 2014

See weather overviewHow to use our weather pages